KLM342 EGPH-EGKK

Flight info

Callsign KLM342
Flight time 1h 10m
Altitude 35000
Route GOSAM P600 FENIK L612 NAVSO DCT ADZOP DCT EGTOC DCT KEPAD L151 DISIT
Aircraft B738/M-SDE2E3FGHIR/S

Departure

Time 2026-04-24 08:41
Airport Edinburgh Airport (EGPH)

Arrival

Time 2026-04-24 09:51
Airport London Gatwick Airport (EGKK)
Time Latitude Longitude Altitude Speed Heading
2026-04-24 08:27 55.94798 -3.36611 147 ft 0 kts 92°
2026-04-24 08:31 55.94798 -3.36618 147 ft 2 kts 92°
2026-04-24 08:31 55.94799 -3.36646 147 ft 3 kts 92°
2026-04-24 08:32 55.94799 -3.36680 147 ft 3 kts 79°
2026-04-24 08:32 55.94791 -3.36714 147 ft 3 kts 57°
2026-04-24 08:32 55.94777 -3.36740 147 ft 3 kts 35°
2026-04-24 08:32 55.94759 -3.36756 147 ft 3 kts 16°
2026-04-24 08:33 55.94740 -3.36761 147 ft 0 kts
2026-04-24 08:34 55.94741 -3.36761 147 ft 0 kts
2026-04-24 08:36 55.94758 -3.36760 147 ft 3 kts
2026-04-24 08:36 55.94787 -3.36757 147 ft 6 kts
2026-04-24 08:36 55.94839 -3.36760 147 ft 9 kts 352°
2026-04-24 08:37 55.94905 -3.36813 147 ft 8 kts 328°
2026-04-24 08:37 55.94962 -3.36803 147 ft 10 kts 50°
2026-04-24 08:37 55.95007 -3.36679 147 ft 14 kts 58°
2026-04-24 08:37 55.95062 -3.36516 147 ft 17 kts 59°
2026-04-24 08:38 55.95119 -3.36352 147 ft 16 kts 57°
2026-04-24 08:38 55.95182 -3.36164 147 ft 19 kts 60°
2026-04-24 08:38 55.95255 -3.35939 147 ft 23 kts 59°
2026-04-24 08:38 55.95329 -3.35725 147 ft 18 kts 61°
2026-04-24 08:39 55.95381 -3.35569 147 ft 12 kts 59°
2026-04-24 08:39 55.95422 -3.35449 147 ft 4 kts 58°
2026-04-24 08:39 55.95445 -3.35405 147 ft 6 kts 21°
2026-04-24 08:39 55.95491 -3.35429 147 ft 8 kts 324°
2026-04-24 08:40 55.95542 -3.35490 147 ft 9 kts 327°
2026-04-24 08:40 55.95551 -3.35610 147 ft 18 kts 243°
2026-04-24 08:40 55.95385 -3.36102 147 ft 83 kts 239°
2026-04-24 08:40 55.94957 -3.37376 148 ft 154 kts 239°
2026-04-24 08:41 55.94320 -3.39237 478 ft 193 kts 238°
2026-04-24 08:41 55.93595 -3.41293 1015 ft 194 kts 238°
2026-04-24 08:41 55.92892 -3.43309 1432 ft 192 kts 239°
2026-04-24 08:41 55.92199 -3.45340 1928 ft 192 kts 240°
2026-04-24 08:42 55.91479 -3.47444 2457 ft 206 kts 240°
2026-04-24 08:42 55.90705 -3.49748 3039 ft 224 kts 244°
2026-04-24 08:42 55.90199 -3.52383 3599 ft 231 kts 259°
2026-04-24 08:42 55.89933 -3.55236 4175 ft 233 kts 264°
2026-04-24 08:43 55.89696 -3.58114 4709 ft 233 kts 263°
2026-04-24 08:43 55.89437 -3.60925 5227 ft 232 kts 262°
2026-04-24 08:43 55.89160 -3.63766 5747 ft 232 kts 262°
2026-04-24 08:43 55.88878 -3.66602 6262 ft 232 kts 261°
2026-04-24 08:44 55.88595 -3.69431 6771 ft 232 kts 261°
2026-04-24 08:44 55.88311 -3.72271 7277 ft 232 kts 261°
2026-04-24 08:44 55.88028 -3.75077 7779 ft 234 kts 261°
2026-04-24 08:44 55.87587 -3.77921 8252 ft 238 kts 247°
2026-04-24 08:45 55.86669 -3.80391 8821 ft 243 kts 235°
2026-04-24 08:45 55.85581 -3.82744 9374 ft 256 kts 233°
2026-04-24 08:45 55.84435 -3.85239 9913 ft 264 kts 233°
2026-04-24 08:45 55.83270 -3.87814 10444 ft 270 kts 234°
2026-04-24 08:46 55.82080 -3.90455 10976 ft 279 kts 234°
2026-04-24 08:46 55.80835 -3.93223 11522 ft 292 kts 234°
2026-04-24 08:46 55.79531 -3.96122 12067 ft 306 kts 234°
2026-04-24 08:46 55.78184 -3.99113 12606 ft 319 kts 233°
2026-04-24 08:47 55.76766 -4.02260 13155 ft 332 kts 233°
2026-04-24 08:47 55.75303 -4.05503 13686 ft 340 kts 233°
2026-04-24 08:47 55.73820 -4.08785 14194 ft 347 kts 233°
2026-04-24 08:47 55.72296 -4.12153 14716 ft 348 kts 233°
2026-04-24 08:48 55.70761 -4.15519 15237 ft 352 kts 232°
2026-04-24 08:48 55.68877 -4.18239 15703 ft 360 kts 212°
2026-04-24 08:48 55.66465 -4.19631 16256 ft 371 kts 192°
2026-04-24 08:48 55.63858 -4.19565 16845 ft 379 kts 176°
2026-04-24 08:49 55.61256 -4.18518 17413 ft 388 kts 166°
2026-04-24 08:49 55.58755 -4.16637 17990 ft 394 kts 156°
2026-04-24 08:49 55.56326 -4.14313 18583 ft 399 kts 154°
2026-04-24 08:49 55.53887 -4.11910 19155 ft 403 kts 154°
2026-04-24 08:50 55.51420 -4.09500 19723 ft 406 kts 154°
2026-04-24 08:50 55.48935 -4.07079 20290 ft 410 kts 154°
2026-04-24 08:50 55.46414 -4.04629 20862 ft 413 kts 154°
2026-04-24 08:50 55.43910 -4.02198 21424 ft 417 kts 154°
2026-04-24 08:51 55.41372 -3.99738 21988 ft 420 kts 154°
2026-04-24 08:51 55.38786 -3.97236 22557 ft 422 kts 154°
2026-04-24 08:51 55.36200 -3.94738 23121 ft 424 kts 154°
2026-04-24 08:51 55.33618 -3.92246 23680 ft 425 kts 154°
2026-04-24 08:52 55.31043 -3.89766 24236 ft 425 kts 154°
2026-04-24 08:52 55.28442 -3.87264 24794 ft 425 kts 154°
2026-04-24 08:52 55.25844 -3.84769 25347 ft 425 kts 154°
2026-04-24 08:52 55.23236 -3.82323 25781 ft 426 kts 157°
2026-04-24 08:53 55.20493 -3.80373 26182 ft 425 kts 164°
2026-04-24 08:53 55.17661 -3.78781 26566 ft 427 kts 166°
2026-04-24 08:53 55.14823 -3.77247 26884 ft 431 kts 166°
2026-04-24 08:53 55.11942 -3.75671 27221 ft 434 kts 166°
2026-04-24 08:54 55.09046 -3.74088 27553 ft 436 kts 166°
2026-04-24 08:54 55.06158 -3.72509 27882 ft 438 kts 166°
2026-04-24 08:54 55.03242 -3.70918 28208 ft 440 kts 166°
2026-04-24 08:54 55.00305 -3.69317 28450 ft 444 kts 166°
2026-04-24 08:55 54.97354 -3.67712 28683 ft 447 kts 166°
2026-04-24 08:55 54.94370 -3.66091 28916 ft 450 kts 166°
2026-04-24 08:55 54.91373 -3.64466 29148 ft 453 kts 166°
2026-04-24 08:55 54.88359 -3.62834 29379 ft 455 kts 166°
2026-04-24 08:56 54.85328 -3.61195 29610 ft 457 kts 166°
2026-04-24 08:56 54.82290 -3.59555 29840 ft 459 kts 166°
2026-04-24 08:56 54.79233 -3.57908 30069 ft 460 kts 166°
2026-04-24 08:56 54.76165 -3.56256 30298 ft 462 kts 166°
2026-04-24 08:57 54.73108 -3.54614 30525 ft 463 kts 166°
2026-04-24 08:57 54.70090 -3.52995 30747 ft 464 kts 166°
2026-04-24 08:57 54.66918 -3.51297 30980 ft 464 kts 166°
2026-04-24 08:57 54.63854 -3.49658 31205 ft 465 kts 166°
2026-04-24 08:58 54.60760 -3.48007 31430 ft 465 kts 166°
2026-04-24 08:58 54.57665 -3.46357 31655 ft 465 kts 166°
2026-04-24 08:58 54.54566 -3.44708 31877 ft 465 kts 166°
2026-04-24 08:58 54.51512 -3.43085 32094 ft 464 kts 166°
2026-04-24 08:59 54.48412 -3.41441 32316 ft 463 kts 166°
2026-04-24 08:59 54.45318 -3.39802 32539 ft 463 kts 166°
2026-04-24 08:59 54.42266 -3.38188 32758 ft 463 kts 166°
2026-04-24 08:59 54.39171 -3.36554 32981 ft 462 kts 166°
2026-04-24 09:00 54.36089 -3.34930 33204 ft 462 kts 166°
2026-04-24 09:00 54.33036 -3.33323 33423 ft 461 kts 166°
2026-04-24 09:00 54.29967 -3.31710 33644 ft 461 kts 166°
2026-04-24 09:00 54.26898 -3.30100 33867 ft 461 kts 166°
2026-04-24 09:01 54.23820 -3.28487 34089 ft 460 kts 166°
2026-04-24 09:01 54.20799 -3.26905 34310 ft 460 kts 166°
2026-04-24 09:01 54.17707 -3.25570 34504 ft 457 kts 173°
2026-04-24 09:01 54.14562 -3.24933 34755 ft 454 kts 178°
2026-04-24 09:02 54.11416 -3.24487 34972 ft 454 kts 178°
2026-04-24 09:02 54.05106 -3.23508 35000 ft 452 kts 178°
2026-04-24 09:03 53.99922 -3.22419 34986 ft 455 kts 170°
2026-04-24 09:03 53.95275 -3.19723 34994 ft 458 kts 161°
2026-04-24 09:04 53.90201 -3.16375 34996 ft 459 kts 162°
2026-04-24 09:04 53.84533 -3.12729 34996 ft 459 kts 162°
2026-04-24 09:05 53.79555 -3.09534 34998 ft 460 kts 162°
2026-04-24 09:05 53.72563 -3.05060 34996 ft 461 kts 162°
2026-04-24 09:06 53.67549 -3.01862 34997 ft 460 kts 162°
2026-04-24 09:06 53.61538 -2.98038 34997 ft 461 kts 162°
2026-04-24 09:07 53.55552 -2.94242 34997 ft 460 kts 162°
2026-04-24 09:07 53.46571 -2.88569 34997 ft 460 kts 162°
2026-04-24 09:08 53.40559 -2.84785 34997 ft 460 kts 162°
2026-04-24 09:08 53.34566 -2.81024 34996 ft 460 kts 162°
2026-04-24 09:09 53.28586 -2.77283 34996 ft 460 kts 162°
2026-04-24 09:09 53.22575 -2.73533 34996 ft 460 kts 162°
2026-04-24 09:10 53.16575 -2.69803 34997 ft 460 kts 162°
2026-04-24 09:10 53.10566 -2.66077 34997 ft 460 kts 162°
2026-04-24 09:11 53.04562 -2.62340 34993 ft 461 kts 160°
2026-04-24 09:11 52.98953 -2.57182 34991 ft 464 kts 152°
2026-04-24 09:12 52.93391 -2.51661 34996 ft 465 kts 152°
2026-04-24 09:12 52.87828 -2.46157 34997 ft 465 kts 152°
2026-04-24 09:13 52.82297 -2.40700 34506 ft 464 kts 152°
2026-04-24 09:13 52.79525 -2.37971 34041 ft 464 kts 152°
2026-04-24 09:13 52.76739 -2.35234 33570 ft 465 kts 152°
2026-04-24 09:14 52.73940 -2.32486 33091 ft 466 kts 152°
2026-04-24 09:14 52.71172 -2.29774 32624 ft 467 kts 152°
2026-04-24 09:14 52.68371 -2.27034 32149 ft 468 kts 152°
2026-04-24 09:14 52.65564 -2.24291 31669 ft 467 kts 152°
2026-04-24 09:15 52.62777 -2.21573 31183 ft 464 kts 152°
2026-04-24 09:15 52.59997 -2.18865 30698 ft 462 kts 152°
2026-04-24 09:15 52.57229 -2.16174 30216 ft 460 kts 152°
2026-04-24 09:15 52.54495 -2.13518 29736 ft 458 kts 152°
2026-04-24 09:16 52.51765 -2.10872 29253 ft 457 kts 152°
2026-04-24 09:16 52.49027 -2.08220 28773 ft 454 kts 152°
2026-04-24 09:16 52.46323 -2.05606 28288 ft 453 kts 152°
2026-04-24 09:16 52.43614 -2.02990 27802 ft 448 kts 152°
2026-04-24 09:17 52.40947 -2.00420 27302 ft 441 kts 152°
2026-04-24 09:17 52.38318 -1.97889 26806 ft 434 kts 152°
2026-04-24 09:17 52.35731 -1.95402 26305 ft 428 kts 152°
2026-04-24 09:17 52.33172 -1.92945 25824 ft 426 kts 152°
2026-04-24 09:18 52.30605 -1.90484 25344 ft 427 kts 152°
2026-04-24 09:18 52.28063 -1.88051 24846 ft 421 kts 153°
2026-04-24 09:18 52.25581 -1.85678 24362 ft 416 kts 153°
2026-04-24 09:18 52.23080 -1.83289 23872 ft 414 kts 153°
2026-04-24 09:19 52.20589 -1.80914 23382 ft 412 kts 153°
2026-04-24 09:19 52.18120 -1.78563 22891 ft 409 kts 153°
2026-04-24 09:19 52.15697 -1.76258 22406 ft 406 kts 153°
2026-04-24 09:19 52.13247 -1.73930 21911 ft 403 kts 153°
2026-04-24 09:20 52.10832 -1.71640 21420 ft 400 kts 153°
2026-04-24 09:20 52.07729 -1.68438 20763 ft 395 kts 149°
2026-04-24 09:20 52.06220 -1.66808 20432 ft 390 kts 149°
2026-04-24 09:20 52.03967 -1.64407 19928 ft 384 kts 150°
2026-04-24 09:21 52.01747 -1.62049 19420 ft 376 kts 150°
2026-04-24 09:21 51.99585 -1.59758 18914 ft 366 kts 150°
2026-04-24 09:21 51.97479 -1.57529 18412 ft 359 kts 150°
2026-04-24 09:21 51.95396 -1.55327 17923 ft 356 kts 150°
2026-04-24 09:22 51.93338 -1.53154 17435 ft 354 kts 150°
2026-04-24 09:22 51.91277 -1.50981 16942 ft 352 kts 150°
2026-04-24 09:22 51.89338 -1.48938 16475 ft 349 kts 150°
2026-04-24 09:22 51.87298 -1.46791 15980 ft 347 kts 150°
2026-04-24 09:23 51.85284 -1.44674 15488 ft 344 kts 150°
2026-04-24 09:23 51.84173 -1.43507 15215 ft 343 kts 150°
2026-04-24 09:23 51.82258 -1.41497 14997 ft 341 kts 150°
2026-04-24 09:23 51.80264 -1.39406 14999 ft 342 kts 150°
2026-04-24 09:24 51.78300 -1.37350 14997 ft 342 kts 150°
2026-04-24 09:24 51.76411 -1.35373 14996 ft 342 kts 150°
2026-04-24 09:24 51.74417 -1.33290 14997 ft 342 kts 150°
2026-04-24 09:24 51.72417 -1.31203 14997 ft 342 kts 150°
2026-04-24 09:25 51.70415 -1.29114 14997 ft 342 kts 150°
2026-04-24 09:25 51.68433 -1.27050 14997 ft 342 kts 150°
2026-04-24 09:25 51.66429 -1.24965 14996 ft 342 kts 150°
2026-04-24 09:25 51.64427 -1.22883 14997 ft 342 kts 150°
2026-04-24 09:26 51.62447 -1.20828 14997 ft 342 kts 150°
2026-04-24 09:26 51.60446 -1.18752 14997 ft 342 kts 150°
2026-04-24 09:26 51.58442 -1.16676 14998 ft 342 kts 150°
2026-04-24 09:26 51.56442 -1.14605 14996 ft 342 kts 150°
2026-04-24 09:27 51.54441 -1.12536 14997 ft 342 kts 150°
2026-04-24 09:27 51.52441 -1.10471 14925 ft 342 kts 150°
2026-04-24 09:27 51.50443 -1.08409 14528 ft 340 kts 150°
2026-04-24 09:27 51.48479 -1.06384 14141 ft 336 kts 150°
2026-04-24 09:28 51.46489 -1.04336 13746 ft 335 kts 150°
2026-04-24 09:28 51.44554 -1.02345 13363 ft 333 kts 150°
2026-04-24 09:28 51.42605 -1.00343 13021 ft 331 kts 150°
2026-04-24 09:28 51.40682 -0.98369 13000 ft 325 kts 150°
2026-04-24 09:29 51.38785 -0.96424 12994 ft 321 kts 151°
2026-04-24 09:29 51.36932 -0.94526 12996 ft 320 kts 151°
2026-04-24 09:29 51.35040 -0.92589 12965 ft 321 kts 151°
2026-04-24 09:29 51.33159 -0.90667 12625 ft 319 kts 151°
2026-04-24 09:30 51.31298 -0.88765 12284 ft 316 kts 151°
2026-04-24 09:30 51.29444 -0.86873 11946 ft 315 kts 151°
2026-04-24 09:30 51.27594 -0.84988 11609 ft 314 kts 151°
2026-04-24 09:30 51.25777 -0.83137 11260 ft 306 kts 151°
2026-04-24 09:31 51.24020 -0.81350 10915 ft 300 kts 151°
2026-04-24 09:31 51.22276 -0.79577 10567 ft 295 kts 151°
2026-04-24 09:31 51.20539 -0.77813 10220 ft 296 kts 151°
2026-04-24 09:31 51.18809 -0.76057 9828 ft 294 kts 151°
2026-04-24 09:32 51.17089 -0.74296 9435 ft 293 kts 149°
2026-04-24 09:32 51.15597 -0.72045 9000 ft 295 kts 131°
2026-04-24 09:32 51.14454 -0.69323 8646 ft 294 kts 123°
2026-04-24 09:32 51.13390 -0.66580 8259 ft 294 kts 124°
2026-04-24 09:33 51.12273 -0.63870 8013 ft 291 kts 126°
2026-04-24 09:33 51.11129 -0.61196 8008 ft 293 kts 127°
2026-04-24 09:33 51.09979 -0.58521 7997 ft 292 kts 127°
2026-04-24 09:33 51.08831 -0.55854 7996 ft 292 kts 127°
2026-04-24 09:34 51.07679 -0.53182 7948 ft 293 kts 127°
2026-04-24 09:34 51.06526 -0.50512 7612 ft 292 kts 127°
2026-04-24 09:34 51.05394 -0.47894 7260 ft 288 kts 127°
2026-04-24 09:34 51.04259 -0.45269 6914 ft 286 kts 127°
2026-04-24 09:35 51.03130 -0.42661 6570 ft 285 kts 127°
2026-04-24 09:35 51.02010 -0.40074 6229 ft 285 kts 126°
2026-04-24 09:35 51.00887 -0.37482 5918 ft 287 kts 126°
2026-04-24 09:35 50.99752 -0.34869 5601 ft 284 kts 126°
2026-04-24 09:36 50.98655 -0.32350 5601 ft 273 kts 126°
2026-04-24 09:36 50.97577 -0.29875 5606 ft 272 kts 126°
2026-04-24 09:36 50.96498 -0.27399 5607 ft 273 kts 126°
2026-04-24 09:36 50.95416 -0.24920 5644 ft 274 kts 126°
2026-04-24 09:37 50.94344 -0.22463 5559 ft 272 kts 126°
2026-04-24 09:37 50.93262 -0.19989 5596 ft 273 kts 126°
2026-04-24 09:37 50.92186 -0.17528 5597 ft 267 kts 126°
2026-04-24 09:37 50.91162 -0.15190 5606 ft 253 kts 126°
2026-04-24 09:38 50.90162 -0.12909 5606 ft 252 kts 126°
2026-04-24 09:38 50.89163 -0.10630 5606 ft 252 kts 126°
2026-04-24 09:38 50.88268 -0.08248 5577 ft 253 kts 112°
2026-04-24 09:38 50.88096 -0.05538 5600 ft 252 kts 82°
2026-04-24 09:39 50.88760 -0.03020 5606 ft 248 kts 51°
2026-04-24 09:39 50.90080 -0.01375 5607 ft 240 kts 21°
2026-04-24 09:39 50.91688 -0.01014 5607 ft 231 kts 351°
2026-04-24 09:39 50.93125 -0.01990 5607 ft 224 kts 320°
2026-04-24 09:40 50.93996 -0.03952 5619 ft 221 kts 293°
2026-04-24 09:40 50.94450 -0.06270 5613 ft 217 kts 285°
2026-04-24 09:40 50.94842 -0.08568 5484 ft 213 kts 285°
2026-04-24 09:40 50.95217 -0.10797 5169 ft 211 kts 285°
2026-04-24 09:41 50.95586 -0.13038 4855 ft 208 kts 285°
2026-04-24 09:41 50.95943 -0.15247 4636 ft 206 kts 285°
2026-04-24 09:41 50.96306 -0.17500 4622 ft 210 kts 285°
2026-04-24 09:41 50.96662 -0.19721 4612 ft 210 kts 285°
2026-04-24 09:42 50.97023 -0.21968 4605 ft 207 kts 285°
2026-04-24 09:42 50.97370 -0.24140 4381 ft 202 kts 285°
2026-04-24 09:42 50.97711 -0.26305 4038 ft 200 kts 285°
2026-04-24 09:42 50.98039 -0.28424 3711 ft 194 kts 285°
2026-04-24 09:43 50.98355 -0.30481 3377 ft 190 kts 285°
2026-04-24 09:43 50.98657 -0.32471 3051 ft 186 kts 285°
2026-04-24 09:43 50.98958 -0.34455 2720 ft 183 kts 285°
2026-04-24 09:43 50.99251 -0.36386 2616 ft 179 kts 285°
2026-04-24 09:44 50.99544 -0.38326 2613 ft 181 kts 285°
2026-04-24 09:44 50.99839 -0.40274 2609 ft 181 kts 285°
2026-04-24 09:44 51.00136 -0.42233 2614 ft 187 kts 285°
2026-04-24 09:44 51.00491 -0.44225 2593 ft 181 kts 295°
2026-04-24 09:45 51.01316 -0.45610 2586 ft 174 kts 328°
2026-04-24 09:45 51.02459 -0.46308 2620 ft 179 kts 342°
2026-04-24 09:45 51.03663 -0.46765 2613 ft 180 kts 347°
2026-04-24 09:45 51.04889 -0.47178 2606 ft 180 kts 347°
2026-04-24 09:46 51.06114 -0.47593 2607 ft 180 kts 347°
2026-04-24 09:46 51.07336 -0.48007 2607 ft 179 kts 347°
2026-04-24 09:46 51.08581 -0.48043 2575 ft 183 kts 13°
2026-04-24 09:46 51.09618 -0.46950 2640 ft 177 kts 39°
2026-04-24 09:47 51.10482 -0.45569 2614 ft 172 kts 43°
2026-04-24 09:47 51.11230 -0.44151 2580 ft 169 kts 55°
2026-04-24 09:47 51.11650 -0.42417 2607 ft 169 kts 70°
2026-04-24 09:47 51.11903 -0.40585 2605 ft 169 kts 76°
2026-04-24 09:48 51.12118 -0.38734 2442 ft 170 kts 77°
2026-04-24 09:48 51.12345 -0.36901 2184 ft 167 kts 76°
2026-04-24 09:48 51.12586 -0.35118 1980 ft 165 kts 76°
2026-04-24 09:48 51.12836 -0.33336 1792 ft 166 kts 75°
2026-04-24 09:49 51.13087 -0.31541 1584 ft 165 kts 76°
2026-04-24 09:49 51.13336 -0.29751 1366 ft 164 kts 76°
2026-04-24 09:49 51.13581 -0.27971 1147 ft 162 kts 76°
2026-04-24 09:49 51.13810 -0.26300 993 ft 150 kts 77°
2026-04-24 09:50 51.14031 -0.24700 794 ft 149 kts 77°
2026-04-24 09:50 51.14254 -0.23089 540 ft 148 kts 77°
2026-04-24 09:50 51.14475 -0.21487 366 ft 148 kts 77°
2026-04-24 09:50 51.14695 -0.19893 216 ft 143 kts 77°
2026-04-24 09:51 51.14854 -0.18752 215 ft 65 kts 77°
2026-04-24 09:51 51.14899 -0.18346 215 ft 46 kts 79°
2026-04-24 09:51 51.14931 -0.18171 214 ft 15 kts 72°
2026-04-24 09:51 51.14985 -0.17971 215 ft 21 kts 55°
2026-04-24 09:52 51.15044 -0.17848 214 ft 12 kts 52°
2026-04-24 09:52 51.15076 -0.17791 214 ft 5 kts 37°
2026-04-24 09:52 51.15088 -0.17780 214 ft 0 kts 25°
2026-04-24 09:53 51.15112 -0.17769 214 ft 6 kts
2026-04-24 09:54 51.15167 -0.17771 214 ft 12 kts 352°
2026-04-24 09:54 51.15231 -0.17801 214 ft 9 kts 315°
2026-04-24 09:54 51.15236 -0.17892 214 ft 8 kts 260°
2026-04-24 09:54 51.15223 -0.17982 214 ft 8 kts 257°
2026-04-24 09:55 51.15211 -0.18071 214 ft 8 kts 257°
2026-04-24 09:55 51.15199 -0.18159 214 ft 8 kts 262°
2026-04-24 09:55 51.15223 -0.18223 214 ft 7 kts 339°
2026-04-24 09:55 51.15268 -0.18245 214 ft 7 kts 345°
2026-04-24 09:56 51.15312 -0.18260 214 ft 6 kts 347°
2026-04-24 09:56 51.15354 -0.18275 214 ft 6 kts 348°
2026-04-24 09:56 51.15396 -0.18289 214 ft 6 kts 347°
2026-04-24 09:56 51.15433 -0.18302 214 ft 7 kts 348°
2026-04-24 09:57 51.15485 -0.18319 214 ft 8 kts 348°
2026-04-24 09:57 51.15541 -0.18312 214 ft 9 kts 21°
2026-04-24 09:57 51.15597 -0.18263 214 ft 10 kts 32°
2026-04-24 09:57 51.15643 -0.18218 214 ft 8 kts 31°
2026-04-24 09:58 51.15675 -0.18155 214 ft 6 kts 69°
2026-04-24 09:58 51.15681 -0.18125 214 ft 0 kts 72°
2026-04-24 09:58 51.15685 -0.18090 214 ft 3 kts 79°
2026-04-24 09:58 51.15719 -0.18045 214 ft 8 kts 356°
2026-04-24 09:59 51.15757 -0.18057 214 ft 6 kts 347°
2026-04-24 09:59 51.15791 -0.18055 214 ft 8 kts 28°
2026-04-24 09:59 51.15805 -0.18021 214 ft 0 kts 70°
2026-04-24 09:59 51.15811 -0.17994 215 ft 6 kts 73°
2026-04-24 10:00 51.15818 -0.17933 214 ft 1 kts 80°
2026-04-24 10:00 51.15820 -0.17916 214 ft 0 kts 80°
2026-04-24 10:00 51.15821 -0.17913 214 ft 0 kts 80°